LEGION 4

Last updated on Thu Jul 03 2025 00:02:31 GMT+0000 (Coordinated Universal Time)

1 60453U 24146B 25183.51856934 .00003197 00000+0 17750-3 0 9997 2 60453 45.0372 196.4363 0009707 41.0342 319.1266 15.15913488 47813
UTC large
Height (km)
Speed (km/s)
/
Latitude / Longitude
Inclination (degrees)
Orbital Period (minutes)
Azimuth
Elevation
Range (km)
Doppler Factor

Next 0 passes for location: London (51.5072 / 0.1276)

Sorry there are no passes over London.